Wind_Speed
33 33 32 32 31 31 30 30 30 29 29 29 29 29 29 29 30 30 30 31 32 32 33 33 34 35 35 36 36 37 37 38 39 39 39 40 41 42 43 44 45 45 46
33 33 33 33 32 31 31 31 30 30 30 30 30 30 30 30 31 31 31 32 33 33 34 34 35 36 37 37 38 38 39 40 41 41 41 40 41 42 43 45 46 46 47
34 34 33 33 32 32 32 31 31 31 30 30 31 31 31 32 32 32 33 33 34 34 35 36 37 37 38 39 40 40 41 41 42 43 43 43 42 42 42 44 46 47 48
35 34 34 34 33 33 32 32 32 31 31 31 31 32 32 32 33 33 34 35 35 36 36 37 38 39 40 40 41 42 42 43 44 45 46 47 47 46 44 44 46 48 49
35 34 34 33 32 32 32 32 32 32 32 32 32 32 33 33 34 34 35 36 36 37 38 39 40 40 41 42 43 44 44 45 46 47 47 49 49 50 50 48 48 49 51
34 33 32 32 32 32 32 32 32 32 32 32 33 33 34 34 35 35 36 37 37 38 40 41 41 42 43 44 45 46 46 47 48 48 49 50 51 52 54 54 53 52 52
32 31 31 31 32 32 32 32 33 33 33 33 34 35 35 36 36 37 37 38 39 40 41 42 43 44 45 46 46 47 48 48 49 50 51 52 53 55 56 57 57 56 55
30 30 30 31 32 32 32 33 33 33 34 34 35 36 36 36 37 38 38 39 40 41 42 43 44 45 46 47 47 48 48 49 50 51 52 53 55 56 58 59 59 59 57
29 29 30 31 31 32 32 33 33 34 35 35 36 36 37 37 38 39 39 40 41 42 44 45 46 46 47 47 48 49 50 51 52 53 54 56 57 58 59 60 61 61 61
30 30 30 31 31 31 32 33 34 35 35 36 36 37 38 39 39 40 41 42 43 44 45 46 47 47 48 49 49 50 51 53 54 55 56 57 58 59 60 61 61 62 63
30 30 30 31 32 32 33 34 34 35 36 37 38 39 39 40 41 42 43 44 45 46 47 47 48 49 49 50 51 52 53 54 55 55 56 58 59 59 60 61 62 63 64
31 31 31 31 32 32 33 34 35 36 37 38 39 40 41 41 43 44 45 46 47 48 48 49 49 50 51 52 53 54 54 55 56 57 58 58 60 60 61 62 63 64 66
31 31 32 32 32 33 34 35 36 37 39 40 40 41 42 43 44 46 47 47 48 49 50 50 51 52 53 53 54 55 55 56 57 58 59 60 61 62 63 64 65 67 68
31 32 32 32 33 34 35 36 37 39 40 41 42 43 44 44 45 46 47 48 49 50 51 52 52 53 54 55 55 56 56 57 59 60 61 62 63 64 65 66 67 69 70
31 32 33 34 34 35 36 38 39 40 41 42 43 44 45 45 46 48 49 50 51 52 52 53 54 55 55 56 57 57 58 59 60 61 62 64 65 66 67 69 70 71 71
33 33 34 34 35 36 37 38 40 41 42 43 44 45 46 47 48 49 50 51 52 53 53 54 55 56 57 58 59 60 60 61 63 63 64 65 67 68 69 71 72 73 73
35 35 35 35 35 36 38 39 41 41 42 44 45 46 47 48 49 50 51 52 53 54 55 55 57 58 59 60 61 62 63 64 65 66 67 68 69 71 71 72 72 73 75
35 35 35 36 37 38 39 40 41 42 43 44 45 47 48 49 50 51 52 53 54 55 56 57 58 60 61 62 63 64 66 66 67 68 70 71 72 73 74 74 74 74 75
35 35 36 37 37 38 39 40 41 42 44 45 46 47 48 49 51 52 53 55 56 57 58 59 60 61 62 64 66 67 68 68 69 71 72 74 74 74 76 77 76 75 74
35 36 37 37 38 39 40 41 42 43 45 46 47 48 49 51 52 54 55 56 57 58 60 61 62 64 65 67 68 70 71 72 72 73 74 75 76 76 77 78 77 75 73
36 37 38 38 39 40 41 42 43 44 46 47 48 49 51 52 54 55 56 58 59 60 62 63 64 66 68 69 71 73 74 75 75 75 75 76 76 77 77 77 76 75 72
37 38 39 39 40 40 42 43 44 45 47 48 49 51 52 54 55 57 58 60 61 62 63 65 66 68 70 72 74 75 77 78 78 77 77 77 77 77 77 76 74 71 68
38 38 38 39 40 42 43 44 45 46 48 49 51 52 54 55 57 58 60 61 63 65 66 68 69 70 72 74 76 77 78 79 79 78 78 78 77 76 74 72 69 66 62
38 38 39 40 42 43 44 45 47 48 49 50 52 54 55 56 58 60 61 63 65 67 69 71 72 74 75 76 78 78 79 78 79 79 78 77 75 73 70 66 62 59 56
38 39 40 42 43 44 45 46 48 49 50 52 53 55 56 58 59 61 63 65 67 70 72 74 76 77 77 78 79 79 79 79 80 79 77 75 71 67 63 59 56 53 51
39 40 42 43 44 45 46 48 49 50 51 53 54 56 58 59 61 63 65 67 70 72 75 77 78 79 79 79 80 80 80 80 79 78 74 70 65 61 58 54 51 48 46
Wind_Direction
274 275 274 274 275 275 275 275 275 275 275 276 278 278 279 281 283 285 286 287 288 289 289 290 290 290 290 290 289 289 289 288 288 287 287 287 287 286 286 286 286 286 286
273 273 274 274 274 274 274 274 274 274 274 276 277 278 280 281 283 285 286 288 289 290 290 290 290 291 291 290 290 290 289 289 288 288 287 286 286 287 287 287 287 286 286
272 272 273 273 273 273 273 272 272 273 274 276 277 278 280 281 283 285 287 288 289 290 290 290 291 291 291 291 291 291 290 290 290 289 288 287 285 284 285 286 287 287 287
271 272 272 272 272 272 271 271 271 272 273 275 277 278 280 282 283 285 287 289 289 290 291 291 292 292 292 292 292 292 292 291 291 291 290 290 289 287 284 283 284 284 285
270 271 271 271 271 270 270 270 271 272 273 274 277 279 281 282 284 286 288 289 291 291 292 292 293 293 293 294 294 294 293 293 292 292 292 291 291 290 288 286 285 285 285
270 270 269 269 269 269 269 269 270 271 273 275 277 279 282 284 286 287 289 291 292 293 293 294 294 294 294 295 295 295 294 294 293 293 293 292 292 291 291 290 288 287 287
269 269 268 268 267 267 268 268 270 271 273 275 278 280 283 285 287 289 291 292 293 293 294 294 295 295 295 296 296 296 295 295 295 294 294 294 294 293 293 292 291 290 289
267 266 267 267 267 267 268 269 270 272 274 277 280 282 284 286 288 290 291 292 294 295 295 296 296 296 296 296 297 297 296 296 296 296 295 295 295 295 294 294 293 292 291
265 264 265 265 266 267 268 269 271 274 276 278 281 283 286 288 290 291 293 294 295 296 296 297 297 297 297 297 297 297 297 297 297 297 296 296 296 296 296 295 295 294 293
265 264 264 264 266 267 269 271 273 275 277 280 282 285 287 289 291 292 294 295 296 296 297 297 297 297 297 297 298 298 298 298 297 297 297 297 297 297 297 296 296 296 295
264 265 264 264 266 269 270 272 274 276 278 281 284 287 289 290 292 293 294 295 296 297 297 298 298 298 298 298 298 298 298 298 298 298 298 298 298 298 297 297 297 297 296
265 265 266 268 270 271 273 274 276 278 280 283 285 287 289 291 292 293 294 295 296 297 298 298 298 298 298 299 299 299 299 299 299 299 299 299 299 298 298 298 297 297 297
266 267 269 271 272 273 274 276 278 280 282 284 286 288 290 292 293 294 295 296 297 297 298 299 299 299 299 299 299 299 299 300 300 300 300 299 299 299 298 298 298 298 298
269 270 271 272 273 274 276 277 279 281 284 286 287 289 291 293 294 295 296 297 297 298 299 299 300 300 300 300 300 300 301 301 301 301 301 300 300 299 299 299 299 298 298
270 271 271 272 274 276 277 279 281 283 285 287 289 290 292 293 294 295 296 297 297 298 299 300 300 301 301 301 301 301 302 302 302 302 302 301 301 300 300 300 299 299 299
272 273 274 275 275 277 279 281 283 284 286 287 289 290 292 293 294 295 296 297 298 299 300 300 301 301 302 302 302 302 302 302 303 302 302 301 301 301 301 301 301 300 300
274 275 276 276 277 279 281 283 284 285 287 288 289 291 292 293 294 295 296 297 298 299 300 300 301 302 302 302 302 303 303 303 303 303 302 302 302 302 301 301 301 301 301
275 276 277 277 279 281 283 284 285 287 288 289 290 291 292 293 295 296 297 298 299 300 301 301 302 302 302 302 302 303 303 304 303 303 303 303 303 302 302 301 301 301 301
277 278 278 279 281 283 285 286 287 288 289 290 291 292 293 294 295 297 298 298 299 300 301 302 302 303 303 303 303 303 303 303 303 303 303 303 303 302 302 302 302 301 301
278 279 280 281 283 284 285 286 287 288 289 290 292 293 294 295 296 297 298 299 300 301 302 302 303 303 303 304 304 304 303 303 303 303 303 303 303 302 302 302 302 302 301
279 280 281 283 284 285 286 287 288 289 291 292 293 294 295 296 297 298 299 300 301 301 302 303 303 304 304 304 304 304 304 304 304 304 303 303 303 303 303 303 302 302 300
280 281 283 283 285 286 287 289 290 291 292 293 294 295 297 298 299 299 300 300 301 302 302 303 303 304 304 304 304 304 304 304 304 304 304 304 303 303 303 302 302 301 300
282 284 285 285 287 288 289 290 292 293 294 295 296 297 298 298 299 300 300 301 302 302 303 303 304 304 304 304 304 304 304 305 305 305 305 305 304 304 303 302 301 300 299
283 285 286 287 288 290 291 292 293 294 295 296 297 298 298 299 300 301 302 302 303 303 304 304 304 305 305 305 304 304 305 305 304 305 305 305 305 303 302 301 300 299 299
285 286 287 289 290 291 292 293 294 295 296 298 298 299 300 300 301 302 303 303 304 304 305 305 305 306 306 305 305 305 305 305 305 305 305 304 304 302 301 300 299 298 298
287 288 289 291 292 293 294 295 296 297 298 299 299 300 301 301 302 303 303 304 305 305 306 306 306 306 306 306 306 306 305 305 305 305 305 305 304 303 301 300 298 297 296
Height
5809 5808 5808 5807 5807 5806 5806 5805 5804 5803 5801 5800 5799 5798 5797 5796 5794 5792 5791 5789 5787 5785 5784 5782 5779 5777 5775 5773 5771 5769 5767 5765 5763 5762 5760 5758 5755 5752 5749 5747 5744 5742 5740
5801 5801 5801 5800 5800 5799 5799 5798 5797 5796 5795 5794 5793 5792 5791 5789 5788 5786 5784 5782 5781 5779 5776 5774 5772 5770 5768 5765 5763 5761 5758 5756 5754 5752 5751 5750 5748 5743 5740 5737 5734 5731 5729
5794 5794 5794 5793 5793 5792 5792 5791 5790 5790 5789 5788 5787 5785 5784 5782 5781 5779 5778 5775 5773 5771 5769 5767 5764 5762 5759 5757 5754 5752 5749 5747 5744 5741 5739 5738 5737 5736 5733 5728 5724 5721 5718
5787 5786 5787 5786 5786 5786 5785 5784 5784 5783 5782 5781 5780 5779 5777 5776 5774 5772 5770 5768 5766 5764 5761 5759 5756 5753 5751 5748 5745 5742 5739 5737 5734 5731 5728 5725 5723 5722 5723 5721 5716 5711 5707
5779 5779 5779 5779 5779 5778 5778 5777 5777 5776 5775 5774 5773 5772 5771 5769 5767 5765 5763 5761 5758 5756 5753 5750 5747 5744 5742 5738 5735 5732 5729 5726 5723 5720 5716 5713 5710 5707 5706 5707 5705 5701 5696
5771 5771 5771 5772 5771 5771 5771 5770 5770 5769 5768 5767 5766 5765 5763 5761 5759 5757 5755 5752 5750 5747 5744 5741 5738 5735 5732 5729 5725 5722 5718 5715 5711 5708 5704 5701 5698 5694 5691 5690 5688 5687 5684
5764 5764 5764 5764 5764 5764 5764 5763 5763 5762 5761 5760 5759 5757 5756 5754 5752 5749 5747 5744 5741 5738 5735 5732 5729 5725 5722 5718 5715 5711 5707 5703 5700 5696 5692 5688 5684 5680 5677 5674 5671 5670 5668
5757 5757 5757 5757 5757 5757 5756 5756 5755 5754 5753 5752 5751 5749 5748 5746 5743 5741 5738 5736 5732 5729 5726 5722 5719 5715 5711 5708 5704 5700 5696 5692 5688 5684 5679 5675 5670 5666 5662 5658 5654 5652 5651
5750 5750 5750 5750 5750 5749 5749 5748 5748 5747 5746 5744 5743 5741 5739 5737 5735 5732 5729 5726 5723 5720 5716 5712 5709 5705 5701 5697 5693 5688 5684 5680 5675 5671 5666 5662 5657 5652 5647 5642 5637 5634 5632
5743 5743 5743 5742 5742 5742 5742 5741 5740 5739 5738 5737 5735 5733 5731 5729 5726 5723 5720 5717 5713 5710 5706 5702 5698 5694 5690 5685 5681 5677 5672 5668 5663 5658 5653 5648 5642 5637 5632 5627 5622 5616 5612
5735 5735 5735 5735 5735 5735 5734 5733 5732 5731 5730 5728 5727 5725 5722 5720 5717 5714 5710 5707 5703 5699 5695 5691 5687 5682 5678 5673 5669 5664 5659 5655 5649 5644 5639 5634 5628 5623 5617 5612 5606 5600 5595
5728 5728 5728 5728 5728 5727 5726 5725 5724 5723 5722 5720 5718 5715 5713 5710 5707 5703 5700 5696 5692 5688 5684 5679 5675 5670 5666 5661 5656 5651 5646 5641 5636 5630 5625 5619 5613 5608 5602 5596 5590 5584 5578
5720 5720 5720 5720 5720 5719 5718 5717 5716 5714 5713 5711 5708 5706 5703 5700 5696 5693 5689 5685 5681 5677 5672 5668 5663 5658 5653 5648 5643 5638 5633 5627 5622 5616 5610 5604 5598 5592 5586 5579 5573 5566 5560
5713 5713 5713 5712 5711 5710 5710 5708 5707 5705 5703 5701 5698 5696 5693 5689 5686 5682 5678 5674 5669 5665 5660 5655 5650 5645 5640 5635 5629 5624 5619 5613 5607 5601 5594 5588 5581 5575 5569 5562 5555 5548 5542
5705 5705 5704 5704 5703 5702 5701 5699 5698 5696 5693 5691 5688 5685 5682 5678 5674 5671 5666 5662 5657 5652 5647 5642 5637 5632 5626 5621 5615 5610 5605 5599 5592 5585 5578 5571 5564 5557 5550 5544 5537 5530 5523
5696 5696 5696 5695 5694 5693 5692 5690 5688 5686 5683 5681 5678 5674 5671 5667 5663 5659 5654 5650 5645 5640 5635 5629 5624 5618 5612 5606 5600 5595 5589 5583 5576 5570 5562 5554 5547 5539 5532 5524 5517 5509 5501
5688 5687 5687 5686 5685 5684 5682 5680 5678 5675 5673 5670 5666 5663 5659 5655 5651 5647 5642 5637 5632 5627 5621 5616 5610 5604 5597 5591 5585 5579 5573 5567 5559 5552 5544 5537 5529 5520 5513 5506 5498 5490 5480
5678 5678 5677 5676 5675 5673 5672 5670 5667 5665 5662 5658 5655 5651 5648 5643 5639 5634 5629 5624 5619 5614 5608 5602 5596 5589 5583 5576 5569 5563 5556 5550 5542 5534 5526 5518 5510 5501 5492 5486 5479 5471 5462
5669 5669 5668 5666 5665 5663 5661 5659 5656 5653 5650 5647 5643 5639 5635 5631 5626 5622 5616 5611 5606 5600 5594 5587 5581 5574 5568 5560 5552 5545 5539 5532 5525 5516 5507 5498 5490 5481 5472 5464 5458 5452 5443
5660 5659 5658 5656 5655 5653 5651 5648 5645 5642 5639 5635 5631 5627 5623 5618 5614 5608 5603 5597 5591 5586 5579 5573 5566 5558 5551 5543 5535 5527 5520 5514 5507 5499 5489 5479 5469 5461 5451 5442 5435 5428 5422
5650 5649 5648 5646 5644 5642 5640 5637 5634 5631 5627 5623 5619 5615 5610 5605 5600 5595 5589 5583 5577 5571 5565 5558 5551 5543 5534 5526 5517 5508 5499 5492 5485 5478 5470 5460 5449 5440 5430 5420 5412 5405 5398
5641 5639 5638 5636 5634 5632 5629 5626 5623 5619 5615 5611 5607 5602 5597 5592 5586 5580 5574 5568 5561 5555 5548 5541 5535 5526 5517 5507 5498 5488 5479 5470 5462 5456 5448 5439 5429 5419 5410 5400 5392 5384 5377
5631 5629 5627 5625 5623 5620 5618 5614 5611 5607 5603 5599 5594 5589 5583 5577 5571 5565 5559 5553 5545 5538 5531 5524 5516 5509 5500 5489 5479 5469 5459 5449 5440 5433 5425 5416 5407 5398 5389 5380 5372 5364 5358
5621 5619 5617 5615 5612 5609 5606 5602 5598 5594 5590 5585 5580 5575 5569 5563 5557 5550 5544 5537 5529 5521 5513 5505 5497 5490 5481 5471 5460 5450 5440 5430 5420 5411 5404 5395 5386 5377 5368 5361 5354 5347 5341
5610 5608 5606 5603 5600 5597 5593 5590 5586 5581 5577 5572 5566 5561 5555 5549 5542 5535 5528 5520 5512 5502 5494 5485 5476 5467 5460 5451 5438 5428 5419 5409 5400 5390 5383 5375 5367 5359 5351 5344 5338 5332 5327
5600 5597 5595 5592 5588 5585 5581 5577 5573 5568 5563 5558 5552 5546 5540 5533 5526 5519 5513 5504 5495 5486 5475 5464 5454 5445 5436 5427 5418 5407 5396 5387 5376 5367 5360 5353 5346 5339 5333 5327 5323 5318 5313